Location: Hains Lake
(37.8540°N, 99.8578°W)
Time: 23:38:24
(UTC+00:00)

Explorer 7 - Pass Details

Date: 28 April 2021
Orbit: 484 x 677 km, 50.3° (Epoch: 14 May)

Event Time Altitude Azimuth Distance (km) Brightness Sun altitude
Rises 01:48:18 0° 291° (WNW) 2,603 13.4 -4.8°
Reaches altitude 10° 01:51:15 10° 316° (NW) 1,752 10.7 -5.4°
Maximum altitude 01:53:37 15° 353° (N) 1,483 9.4 -5.8°
Drops below altitude 10° 01:56:04 10° 29° (NNE) 1,816 9.4 -6.2°
Sets 01:59:12 0° 53° (NE) 2,758 10.1 -6.8°
